Location: Almena Post Office
(39.8928°N, 99.7066°W)
Time: 13:37:09
(UTC+00:00)

FENGYUN 3A - Pass Details

Date: 27 February 2020
Orbit: 824 x 836 km, 98.4° (Epoch: 29 March)

Event Time Altitude Azimuth Distance (km) Brightness Sun altitude
Rises 11:59:38 0° 11° (N) 3,394 7.0 -15.4°
Reaches altitude 10° 12:02:00 10° 10° (N) 2,456 6.3 -14.9°
Maximum altitude 12:07:26 78° 285° (WNW) 857 3.6 -13.9°
Drops below altitude 10° 12:12:50 10° 200° (SSW) 2,436 5.9 -12.8°
Sets 12:15:11 0° 199° (SSW) 3,364 6.6 -12.4°
